TimeCDT,TemperatureF,Dew PointF,Humidity,Sea Level PressureIn,VisibilityMPH,Wind Direction,Wind SpeedMPH,Gust SpeedMPH,PrecipitationIn,Events,Conditions,WindDirDegrees,DateUTC
12:15 AM,57.0,57.0,100,30.04,10.0,Calm,Calm,-,N/A,,Clear,0,2013-05-07 05:15:00
12:35 AM,56.3,56.3,100,30.04,10.0,Calm,Calm,-,N/A,,Clear,0,2013-05-07 05:35:00
12:55 AM,55.8,55.8,100,30.04,10.0,Calm,Calm,-,N/A,,Clear,0,2013-05-07 05:55:00
1:15 AM,55.4,55.4,100,30.04,10.0,Calm,Calm,-,N/A,,Scattered Clouds,0,2013-05-07 06:15:00
1:35 AM,54.9,54.9,100,30.04,10.0,Calm,Calm,-,N/A,,Clear,0,2013-05-07 06:35:00
1:55 AM,54.5,54.5,100,30.04,10.0,Calm,Calm,-,N/A,,Clear,0,2013-05-07 06:55:00
2:15 AM,53.6,53.6,100,30.03,10.0,Calm,Calm,-,N/A,,Clear,0,2013-05-07 07:15:00
2:35 AM,53.4,53.4,100,30.03,10.0,Calm,Calm,-,N/A,,Clear,0,2013-05-07 07:35:00
2:55 AM,52.7,52.7,100,30.03,10.0,Calm,Calm,-,N/A,,Clear,0,2013-05-07 07:55:00
3:15 AM,52.0,52.0,100,30.03,7.0,Calm,Calm,-,N/A,,Clear,0,2013-05-07 08:15:00
3:35 AM,51.6,51.6,100,30.03,10.0,Calm,Calm,-,N/A,,Clear,0,2013-05-07 08:35:00
3:55 AM,50.9,50.9,100,30.04,10.0,Calm,Calm,-,N/A,,Clear,0,2013-05-07 08:55:00
4:15 AM,50.9,50.9,100,30.04,10.0,Calm,Calm,-,N/A,,Clear,0,2013-05-07 09:15:00
4:35 AM,50.0,50.0,100,30.04,10.0,Calm,Calm,-,N/A,,Clear,0,2013-05-07 09:35:00
4:55 AM,51.1,51.1,100,30.04,10.0,Calm,Calm,-,N/A,,Clear,0,2013-05-07 09:55:00
5:15 AM,50.5,50.5,100,30.05,10.0,Calm,Calm,-,N/A,,Clear,0,2013-05-07 10:15:00
5:35 AM,50.0,50.0,100,30.05,10.0,Calm,Calm,-,N/A,,Clear,0,2013-05-07 10:35:00
5:55 AM,50.0,50.0,100,30.05,10.0,Calm,Calm,-,N/A,,Clear,0,2013-05-07 10:55:00
6:15 AM,50.0,50.0,100,30.06,10.0,Calm,Calm,-,N/A,,Clear,0,2013-05-07 11:15:00
6:35 AM,49.6,49.6,100,30.07,10.0,Calm,Calm,-,N/A,,Clear,0,2013-05-07 11:35:00
6:55 AM,50.9,50.9,100,30.08,10.0,Calm,Calm,-,N/A,,Clear,0,2013-05-07 11:55:00
7:15 AM,51.6,51.6,100,30.08,10.0,Calm,Calm,-,N/A,,Clear,0,2013-05-07 12:15:00
7:35 AM,55.4,55.4,100,30.08,10.0,Calm,Calm,-,N/A,,Clear,0,2013-05-07 12:35:00
7:55 AM,57.7,57.7,100,30.09,10.0,Calm,Calm,-,N/A,,Clear,0,2013-05-07 12:55:00
8:15 AM,59.9,59.9,100,30.10,10.0,Calm,Calm,-,N/A,,Clear,0,2013-05-07 13:15:00
8:35 AM,63.3,57.4,81,30.11,10.0,NNW,3.5,-,N/A,,Clear,330,2013-05-07 13:35:00
8:55 AM,64.4,56.1,74,30.11,10.0,NNW,3.5,-,N/A,,Clear,340,2013-05-07 13:55:00
9:15 AM,64.0,55.2,73,30.11,10.0,North,3.5,-,N/A,,Clear,360,2013-05-07 14:15:00
9:35 AM,66.4,55.2,67,30.11,10.0,North,4.6,-,N/A,,Clear,10,2013-05-07 14:35:00
9:55 AM,68.0,54.5,62,30.11,10.0,North,4.6,-,N/A,,Clear,360,2013-05-07 14:55:00
10:15 AM,68.5,54.3,60,30.11,10.0,Calm,Calm,-,N/A,,Clear,0,2013-05-07 15:15:00
10:35 AM,68.7,55.2,62,30.11,10.0,North,4.6,-,N/A,,Clear,360,2013-05-07 15:35:00
11:15 AM,70.3,54.1,56,30.12,10.0,Calm,Calm,-,N/A,,Clear,0,2013-05-07 16:15:00
11:35 AM,71.8,54.1,54,30.11,10.0,NNW,3.5,-,N/A,,Clear,330,2013-05-07 16:35:00
11:55 AM,73.2,53.1,49,30.11,10.0,WNW,4.6,-,N/A,,Clear,290,2013-05-07 16:55:00
12:15 PM,73.8,50.2,43,30.11,10.0,North,4.6,-,N/A,,Clear,350,2013-05-07 17:15:00
12:35 PM,73.9,51.4,45,30.10,10.0,North,3.5,-,N/A,,Clear,360,2013-05-07 17:35:00
12:55 PM,74.8,51.1,43,30.10,10.0,NE,3.5,-,N/A,,Clear,50,2013-05-07 17:55:00
1:15 PM,75.0,51.1,43,30.09,10.0,NNW,6.9,-,N/A,,Clear,340,2013-05-07 18:15:00
1:35 PM,76.1,52.2,43,30.08,10.0,NNE,9.2,-,N/A,,Clear,30,2013-05-07 18:35:00
1:55 PM,77.0,52.0,42,30.08,10.0,NNW,8.1,-,N/A,,Clear,330,2013-05-07 18:55:00
2:15 PM,77.4,50.2,38,30.08,10.0,North,6.9,-,N/A,,Scattered Clouds,350,2013-05-07 19:15:00
2:35 PM,76.5,50.9,41,30.07,10.0,Calm,Calm,-,N/A,,Scattered Clouds,0,2013-05-07 19:35:00
2:55 PM,77.2,50.2,39,30.06,10.0,Calm,Calm,-,N/A,,Scattered Clouds,0,2013-05-07 19:55:00
3:15 PM,77.7,50.9,39,30.05,10.0,WNW,3.5,-,N/A,,Scattered Clouds,300,2013-05-07 20:15:00
3:35 PM,76.1,46.9,36,30.05,10.0,WNW,4.6,-,N/A,,Scattered Clouds,300,2013-05-07 20:35:00
3:55 PM,76.1,49.3,39,30.04,10.0,North,3.5,-,N/A,,Scattered Clouds,360,2013-05-07 20:55:00
4:15 PM,75.7,50.0,40,30.04,10.0,Calm,Calm,-,N/A,,Scattered Clouds,0,2013-05-07 21:15:00
4:55 PM,77.5,49.1,37,30.04,10.0,NW,3.5,-,N/A,,Scattered Clouds,320,2013-05-07 21:55:00
5:15 PM,78.8,47.7,33,30.03,10.0,NW,4.6,-,N/A,,Clear,310,2013-05-07 22:15:00
5:35 PM,79.0,47.7,33,30.03,10.0,NNW,3.5,-,N/A,,Clear,340,2013-05-07 22:35:00
5:55 PM,78.8,48.0,34,30.03,10.0,NW,3.5,-,N/A,,Scattered Clouds,310,2013-05-07 22:55:00
6:15 PM,78.4,49.1,36,30.03,10.0,Calm,Calm,-,N/A,,Scattered Clouds,0,2013-05-07 23:15:00
6:55 PM,77.2,49.3,37,30.02,10.0,Calm,Calm,-,N/A,,Clear,0,2013-05-07 23:55:00
7:15 PM,73.8,59.9,62,30.02,10.0,Calm,Calm,-,N/A,,Clear,0,2013-05-08 00:15:00
7:35 PM,68.7,58.8,71,30.03,10.0,Calm,Calm,-,N/A,,Clear,0,2013-05-08 00:35:00
7:55 PM,66.4,59.5,79,30.03,10.0,Calm,Calm,-,N/A,,Clear,0,2013-05-08 00:55:00
8:15 PM,64.6,59.4,83,30.04,10.0,Calm,Calm,-,N/A,,Clear,0,2013-05-08 01:15:00
8:35 PM,63.0,59.9,90,30.04,10.0,Calm,Calm,-,N/A,,Clear,0,2013-05-08 01:35:00
8:55 PM,61.7,60.8,97,30.05,10.0,Calm,Calm,-,N/A,,Clear,0,2013-05-08 01:55:00
9:15 PM,60.8,60.8,100,30.05,10.0,Calm,Calm,-,N/A,,Clear,0,2013-05-08 02:15:00
9:35 PM,60.1,60.1,100,30.06,10.0,Calm,Calm,-,N/A,,Clear,0,2013-05-08 02:35:00
9:55 PM,59.9,59.9,100,30.07,10.0,Calm,Calm,-,N/A,,Clear,0,2013-05-08 02:55:00
10:15 PM,59.0,59.0,100,30.07,10.0,Calm,Calm,-,N/A,,Clear,0,2013-05-08 03:15:00
10:35 PM,59.0,59.0,100,30.08,10.0,Calm,Calm,-,N/A,,Clear,0,2013-05-08 03:35:00
10:55 PM,58.8,58.8,100,30.08,10.0,Calm,Calm,-,N/A,,Clear,0,2013-05-08 03:55:00
11:15 PM,57.6,57.6,100,30.08,10.0,Calm,Calm,-,N/A,,Clear,0,2013-05-08 04:15:00
11:35 PM,57.0,57.0,100,30.08,10.0,Calm,Calm,-,N/A,,Clear,0,2013-05-08 04:35:00
11:55 PM,57.4,57.4,100,30.08,10.0,Calm,Calm,-,N/A,,Clear,0,2013-05-08 04:55:00